Observations for Trim Market St
| Time | AQI | Temp °C | Hum % | Pres Pa | CO μg/m³ | H₂S μg/m³ | NO μg/m³ | NO₂ μg/m³ | O₃ μg/m³ | SO₂ μg/m³ | PM1 μg/m³ | PM2.5 μg/m³ | PM10 μg/m³ |
|---|---|---|---|---|---|---|---|---|---|---|---|---|---|
| Monday 17 August 2026 | |||||||||||||
| 21:54 | 3 | 19.6 | 83 | 2,147,483,647 | 0.09 | 0 | 2.28 | 12.33 | 63.48 | 0 | 0 | 0.55 | 3.15 |
| 21:53 | 3 | 19.6 | 83 | 2,147,483,647 | 0.09 | 0 | 2.3 | 10.96 | 47.62 | 0 | 0 | 0.55 | 3.15 |
| 21:52 | 3 | 19.6 | 83 | 2,147,483,647 | 0.08 | 0 | 2.31 | 3.35 | 52.67 | 0 | 0 | 0.55 | 3.7 |
| 21:49 | 3 | 19.6 | 83 | 2,147,483,647 | 0.08 | 0 | 2.26 | 2.37 | 32.14 | 0 | 0 | 0.55 | 3.15 |
| 21:48 | 3 | 19.6 | 83 | 2,147,483,647 | 0.11 | 0 | 2.25 | 17.08 | 62.99 | 0 | 0 | 1.03 | 3.7 |
| 21:44 | 3 | 19.6 | 83 | 2,147,483,647 | 0.08 | 0 | 2.18 | 7.85 | 49.3 | 0 | 0 | 0.56 | 3.15 |
| 21:43 | 3 | 19.6 | 83 | 2,147,483,647 | 0.07 | 0 | 2.26 | 0.02 | 46.46 | 0 | 0 | 0.56 | 3.14 |
| 21:33 | 3 | 19.6 | 83 | 2,147,483,647 | 0.1 | 0 | 1.95 | 8.96 | 49.48 | 0 | 0 | 1.04 | 4.78 |
| 21:32 | 3 | 19.6 | 83 | 2,147,483,647 | 0.1 | 0 | 2.04 | 12.06 | 54.78 | 0 | 0.71 | 1.52 | 4.23 |
| 21:30 | 3 | 19.6 | 83 | 2,147,483,647 | 0.09 | 0 | 2.24 | 9.83 | 48.27 | 0 | 0 | 1.52 | 4.23 |
| 21:28 | 3 | 19.6 | 83 | 2,147,483,647 | 0.1 | 0 | 2.24 | 14.8 | 52.31 | 0 | 0 | 1.52 | 4.23 |
| 21:27 | 3 | 19.6 | 83 | 2,147,483,647 | 0.09 | 0 | 2.24 | 7.21 | 49.69 | 0 | 0 | 1.05 | 3.68 |
| 21:26 | 3 | 19.6 | 83 | 2,147,483,647 | 0.1 | 0 | 2.2 | 11.71 | 42.57 | 0 | 0.71 | 1.99 | 5.88 |
| 21:25 | 3 | 19.6 | 83 | 2,147,483,647 | 0.11 | 0 | 2.13 | 15.42 | 62.27 | 0 | 0.71 | 1.52 | 4.22 |
| 21:24 | 3 | 19.6 | 83 | 2,147,483,647 | 0.13 | 0 | 2.12 | 7.54 | 47.86 | 0 | 0.71 | 1.52 | 4.22 |
| 21:23 | 3 | 19.6 | 83 | 2,147,483,647 | 0.12 | 0 | 2.14 | 13.25 | 54.1 | 0 | 0 | 1.52 | 4.78 |
| 21:22 | 3 | 19.6 | 83 | 2,147,483,647 | 0.12 | 0 | 2.21 | 11.87 | 57.25 | 0 | 0 | 1.06 | 3.67 |
| 21:19 | 3 | 19.5 | 82 | 2,147,483,647 | 0.14 | 0 | 2.2 | 14.88 | 56.99 | 0 | 0.71 | 1.53 | 4.22 |
| 21:14 | 3 | 19.6 | 82 | 2,147,483,647 | 0.11 | 0 | 2.21 | 13.04 | 58.7 | 0 | 0.71 | 2.47 | 6.98 |
| 21:08 | 3 | 19.5 | 82 | 2,147,483,647 | 0.56 | 0 | 2.08 | 14.9 | 52.4 | 0 | 0.71 | 1.56 | 5.31 |